Broken Bow, NE

9:29 AM CST on December 18, 2017 (GMT -0600)
Broken Bow Municipal

Weather History for KBBW - September, 2013

Change the Weather History Date:

Thursday, September 19, 2013

  Actual Average Record
Temperature  
Mean Temperature 56 °F 61 °F  
Max Temperature 66 °F 75 °F 99 °F (1940)
Min Temperature 46 °F 47 °F 24 °F (1971)
Degree Days  
Heating Degree Days 9 6  
Month to date heating degree days 25 63  
Cooling Degree Days 0 1  
Month to date cooling degree days 120 55  
Year to date cooling degree days 806 751  
Growing Degree Days 10 (Base 50)    
Moisture  
Dew Point 54 °F    
Average Humidity 77    
Maximum Humidity 93    
Minimum Humidity 60    
Precipitation  
Precipitation 0.31 in 0.09 in 3.17 in (1996)
Sea Level Pressure  
Sea Level Pressure 29.87 in    
Wind  
Wind Speed 10 mph (NW)    
Max Wind Speed 28 mph    
Max Gust Speed 38 mph    
Visibility 9 miles    
Events Rain , Thunderstorm    
T = Trace of Precipitation, MM = Missing Value Source: NWS Daily Summary

Daily Weather History Graph

Daily Weather History Graph

Search for Another Location

Airport or City:

Trip Planner

Search our weather history database for the weather conditions in past years. The results will help you decide how hot, cold, wet, or windy it might be!

Date:

Astronomy

Sep. 19, 2013 Rise Set
Actual Time 7:23 AM CDT 7:40 PM CDT
Civil Twilight 6:55 AM CDT 8:08 PM CDT
Nautical Twilight 6:23 AM CDT 8:40 PM CDT
Astronomical Twilight 5:49 AM CDT 9:13 PM CDT
Moon 7:38 PM CDT (9/19) 7:34 AM CDT (9/19)
Length of Visible Light 13h 12m
Length of Day
12h 17m
Full, 100% of the Moon is Illuminated
Sep 19
Full
Sep 26
Last Quarter
Oct 4
New
Oct 11
First Quarter
Oct 18
Full

Hourly Weather History & Observations

Time (CDT) Temp. Windchill Dew Point Humidity Pressure Visibility Wind Dir Wind Speed Gust Speed Precip Events Conditions
12:24 AM 73.4 °F - 55.4 °F 53% 29.72 in 10.0 mi WNW 18.4 mph 28.8 mph N/A Thunderstorm Thunderstorm
12:31 AM 73.4 °F - 55.4 °F 53% 29.73 in 8.0 mi WNW 20.7 mph 31.1 mph 0.01 in Rain , Thunderstorm Light Thunderstorms and Rain
12:53 AM 66.9 °F - 57.9 °F 73% 29.71 in 1.8 mi West 19.6 mph 28.8 mph 0.33 in Rain , Thunderstorm Heavy Thunderstorms and Rain
1:00 AM 64.4 °F - 60.8 °F 88% 29.82 in 3.0 mi WSW 21.9 mph 36.8 mph 0.03 in Rain , Thunderstorm Thunderstorms and Rain
1:11 AM 64.4 °F - 60.8 °F 88% 29.82 in 1.8 mi WNW 25.3 mph 31.1 mph 0.19 in Rain , Thunderstorm Heavy Thunderstorms and Rain
1:20 AM 64.4 °F - 60.8 °F 88% 29.83 in 3.0 mi WNW 17.3 mph 28.8 mph 0.22 in Rain , Thunderstorm Light Thunderstorms and Rain
1:51 AM 64.4 °F - 57.2 °F 77% 29.70 in 10.0 mi North 20.7 mph 32.2 mph 0.25 in Rain Light Rain
1:53 AM 64.0 °F - 57.9 °F 80% 29.63 in 10.0 mi North 18.4 mph 28.8 mph 0.25 in Rain Light Rain
2:26 AM 64.4 °F - 59.0 °F 83% 29.79 in 10.0 mi West 23.0 mph 35.7 mph 0.00 in Thunderstorm Clear
2:53 AM 64.0 °F - 57.9 °F 80% 29.68 in 10.0 mi NNW 17.3 mph 29.9 mph 0.03 in Rain , Thunderstorm Light Thunderstorms and Rain
3:53 AM 63.0 °F - 60.1 °F 90% 29.65 in 10.0 mi West 5.8 mph - 0.02 in Thunderstorm Thunderstorm
4:20 AM 62.6 °F - 59.0 °F 88% 29.76 in 10.0 mi Calm Calm - 0.00 in Rain Light Rain
4:34 AM 62.6 °F - 59.0 °F 88% 29.79 in 10.0 mi SW 5.8 mph - 0.01 in Rain , Thunderstorm Light Rain
4:49 AM 64.4 °F - 57.2 °F 77% 29.80 in 10.0 mi West 3.5 mph - 0.01 in   Scattered Clouds
4:53 AM 63.0 °F - 59.0 °F 87% 29.73 in 10.0 mi West 3.5 mph - 0.01 in   Partly Cloudy
5:53 AM 62.1 °F - 59.0 °F 90% 29.70 in 10.0 mi North 11.5 mph - 0.01 in Rain Light Rain
6:53 AM 62.1 °F - 60.1 °F 93% 29.76 in 10.0 mi Variable 3.5 mph - 0.00 in   Partly Cloudy
7:53 AM 60.1 °F - 57.9 °F 93% 29.82 in 10.0 mi NNW 10.4 mph - N/A   Scattered Clouds
8:53 AM 57.9 °F - 55.0 °F 90% 29.87 in 10.0 mi North 6.9 mph - N/A   Clear
9:53 AM 57.9 °F - 53.1 °F 84% 29.90 in 10.0 mi NNW 8.1 mph - N/A   Partly Cloudy
10:53 AM 60.1 °F - 50.0 °F 69% 29.92 in 10.0 mi NNW 11.5 mph 21.9 mph N/A   Mostly Cloudy
11:53 AM 63.0 °F - 48.9 °F 60% 29.95 in 10.0 mi North 15.0 mph 27.6 mph N/A   Mostly Cloudy
12:53 PM 62.1 °F - 48.9 °F 62% 29.99 in 10.0 mi NNW 18.4 mph 28.8 mph 0.00 in Rain Light Rain
1:53 PM 59.0 °F - 48.0 °F 67% 29.97 in 10.0 mi North 23.0 mph 31.1 mph 0.00 in   Overcast
2:53 PM 57.0 °F - 48.9 °F 74% 29.96 in 10.0 mi NNE 15.0 mph 24.2 mph N/A   Overcast
3:49 PM 59.0 °F - 51.8 °F 77% 30.03 in 10.0 mi NNW 16.1 mph 23.0 mph 0.01 in   Mostly Cloudy
3:53 PM 57.9 °F - 51.1 °F 78% 30.00 in 10.0 mi North 16.1 mph 24.2 mph 0.01 in   Mostly Cloudy
4:20 PM 59.0 °F - 51.8 °F 77% 30.02 in 10.0 mi NNW 15.0 mph 25.3 mph N/A   Mostly Cloudy
4:53 PM 59.0 °F - 50.0 °F 72% 29.99 in 10.0 mi North 13.8 mph 19.6 mph N/A   Overcast
5:53 PM 63.0 °F - 50.0 °F 63% 29.98 in 10.0 mi North 8.1 mph - N/A   Mostly Cloudy
6:53 PM 63.0 °F - 48.0 °F 58% 29.98 in 10.0 mi North 6.9 mph - N/A   Overcast
7:53 PM 55.0 °F - 51.1 °F 86% 30.00 in 10.0 mi NNW 5.8 mph - N/A   Clear
8:53 PM 52.0 °F - 46.9 °F 83% 30.04 in 10.0 mi North 8.1 mph - N/A   Clear
9:53 PM 50.0 °F - 46.9 °F 89% 30.08 in 10.0 mi NNW 3.5 mph - N/A   Clear
10:53 PM 48.0 °F - 46.0 °F 93% 30.12 in 10.0 mi Calm Calm - N/A   Clear
11:53 PM 46.0 °F 43.9 °F 45.0 °F 96% 30.12 in 10.0 mi North 4.6 mph - N/A   Clear